| time (UTC) | temp F | wind direction | speed MPH | gust MPH | rain 1hr in | rain 24hr in | rain mn in | humidity % | barometer mb |
| 20260504043033 | 62 | 282 | 0.0 | 1.0 | 0.00 | 0.00 | 0.00 | ||
| 20260504033042 | 66 | 291 | 0.0 | 1.0 | 0.00 | 0.00 | 0.00 | ||
| 20260504030111 | 68 | 292 | 0.0 | 1.0 | 0.00 | 0.00 | 0.00 | ||
| 20260504023051 | 70 | 252 | 0.0 | 3.0 | 0.00 | 0.00 | 0.00 | ||
| 20260504013041 | 72 | 279 | 1.0 | 3.0 | 0.00 | 0.00 | 0.00 | ||
| 20260504010051 | 74 | 60 | 1.0 | 4.0 | 0.00 | 0.00 | 0.00 | ||
| 20260504003053 | 76 | 202 | 0.0 | 4.0 | 0.00 | 0.00 | 0.00 | ||
| 20260503233045 | 80 | 287 | 1.0 | 6.0 | 0.00 | 0.00 | 0.00 | ||
| 20260503230111 | 83 | 304 | 1.0 | 4.0 | 0.00 | 0.00 | 0.00 | ||
| 20260503223051 | 85 | 295 | 1.0 | 4.0 | 0.00 | 0.00 | 0.00 | ||
| 20260503220101 | 84 | 233 | 3.0 | 6.0 | 0.00 | 0.00 | 0.00 | ||
| 20260503213042 | 85 | 298 | 0.0 | 5.0 | 0.00 | 0.00 | 0.00 | ||
| 20260503210052 | 84 | 107 | 3.0 | 6.0 | 0.00 | 0.00 | 0.00 | ||
| 20260503200101 | 81 | 61 | 3.0 | 6.0 | 0.00 | 0.00 | 0.00 | ||
| 20260503193044 | 79 | 294 | 2.0 | 5.0 | 0.00 | 0.00 | 0.00 | ||
| 20260503190054 | 77 | 114 | 3.0 | 8.0 | 0.00 | 0.00 | 0.00 | ||
| 20260503180106 | 74 | 83 | 3.0 | 6.0 | 0.00 | 0.00 | 0.00 | ||
| 20260503173046 | 71 | 112 | 3.0 | 8.0 | 0.00 | 0.00 | 0.00 | ||
| 20260503150111 | 62 | 72 | 2.0 | 4.0 | 0.00 | 0.00 | 0.00 | ||
| 20260503053033 | 54 | 222 | 0.0 | 0.0 | 0.00 | 0.00 | 0.00 |